When you browse on this site, cookies collect data to enhance your experience and personalize the content and advertising you see.
Visit our Privacy Policy to learn more. By continuing to use the site, you agree to this use of cookies and data.
  • In Österreich
  • Länderverzeichnis
  • Für 7 Tage
  • Wassertemperatur
  • Wetterkarte
  • News
  • Widgets
  • user-avatar
    Anmelden

    Stündliche Wetter Malye Koryaki

    Heute, 7 Juni, Sonntag

    Zeit Temperatur Niederschläge Wind Luftdruck Luftfeuchtigkeit
    00:00 +14°C° 0 mm 1 m/S 742 mmHg 94%
    01:00 +14°C° 0 mm 1 m/S 743 mmHg 94%
    02:00 +13°C° 0 mm 1 m/S 743 mmHg 94%
    03:00 +12°C° 0 mm 0 m/S 743 mmHg 93%
    04:00 +13°C° 0 mm 0 m/S 743 mmHg 92%
    05:00 +13°C° 0 mm 0 m/S 744 mmHg 92%
    06:00 +15°C° 0 mm 0 m/S 744 mmHg 86%
    07:00 +17°C° 0 mm 0 m/S 744 mmHg 80%
    08:00 +19°C° 0 mm 0 m/S 745 mmHg 74%
    09:00 +23°C° 0 mm 1 m/S 745 mmHg 66%
    10:00 +24°C° 0 mm 1 m/S 745 mmHg 59%
    11:00 +26°C° 0 mm 1 m/S 745 mmHg 51%
    12:00 +26°C° 0 mm 1 m/S 745 mmHg 50%
    13:00 +27°C° 0 mm 1 m/S 745 mmHg 48%
    14:00 +27°C° 0 mm 2 m/S 745 mmHg 47%
    15:00 +27°C° 0 mm 2 m/S 745 mmHg 51%
    16:00 +26°C° 0 mm 2 m/S 745 mmHg 55%
    17:00 +26°C° 0 mm 2 m/S 744 mmHg 58%
    18:00 +24°C° 0 mm 2 m/S 744 mmHg 66%
    19:00 +21°C° 0 mm 2 m/S 744 mmHg 74%
    20:00 +20°C° 0 mm 2 m/S 744 mmHg 82%
    21:00 +19°C° 0 mm 2 m/S 744 mmHg 83%
    22:00 +18°C° 0 mm 2 m/S 744 mmHg 85%
    23:00 +18°C° 0 mm 2 m/S 744 mmHg 86%

    Morgen, 8 Juni, Montag

    Zeit Temperatur Niederschläge Wind Luftdruck Luftfeuchtigkeit
    00:00 +17°C° 0.3 mm 2 m/S 744 mmHg 89%
    01:00 +17°C° 0.3 mm 2 m/S 744 mmHg 91%
    02:00 +17°C° 0.3 mm 2 m/S 744 mmHg 94%
    03:00 +17°C° 0 mm 2 m/S 744 mmHg 94%
    04:00 +17°C° 0 mm 2 m/S 744 mmHg 95%
    05:00 +18°C° 0 mm 2 m/S 744 mmHg 95%
    06:00 +19°C° 0 mm 2 m/S 744 mmHg 90%
    07:00 +21°C° 0 mm 3 m/S 744 mmHg 84%
    08:00 +24°C° 0 mm 3 m/S 744 mmHg 79%
    09:00 +25°C° 0 mm 3 m/S 744 mmHg 72%
    10:00 +26°C° 0 mm 4 m/S 744 mmHg 65%
    11:00 +28°C° 0 mm 4 m/S 745 mmHg 57%
    12:00 +28°C° 0 mm 4 m/S 744 mmHg 56%
    13:00 +28°C° 0 mm 4 m/S 744 mmHg 55%
    14:00 +29°C° 0 mm 4 m/S 744 mmHg 54%
    15:00 +28°C° 0 mm 3 m/S 744 mmHg 57%
    16:00 +28°C° 0 mm 3 m/S 744 mmHg 59%
    17:00 +27°C° 0 mm 3 m/S 743 mmHg 62%
    18:00 +26°C° 0 mm 2 m/S 743 mmHg 71%
    19:00 +24°C° 0 mm 2 m/S 744 mmHg 79%
    20:00 +21°C° 0 mm 2 m/S 744 mmHg 88%
    21:00 +20°C° 0 mm 2 m/S 744 mmHg 90%
    22:00 +19°C° 0 mm 2 m/S 744 mmHg 92%
    23:00 +19°C° 0 mm 1 m/S 744 mmHg 94%

    übermorgen, 9 Juni, Dienstag

    Zeit Temperatur Niederschläge Wind Luftdruck Luftfeuchtigkeit
    00:00 +18°C° 0 mm 2 m/S 744 mmHg 95%
    01:00 +18°C° 0 mm 2 m/S 744 mmHg 95%
    02:00 +17°C° 0 mm 2 m/S 744 mmHg 96%
    03:00 +18°C° 0 mm 2 m/S 744 mmHg 95%
    04:00 +18°C° 0 mm 2 m/S 744 mmHg 94%
    05:00 +19°C° 0 mm 2 m/S 745 mmHg 94%
    06:00 +20°C° 0 mm 2 m/S 745 mmHg 87%
    07:00 +23°C° 0 mm 2 m/S 745 mmHg 80%
    08:00 +25°C° 0 mm 2 m/S 745 mmHg 73%
    09:00 +26°C° 0 mm 2 m/S 745 mmHg 68%
    10:00 +27°C° 0 mm 3 m/S 745 mmHg 62%
    11:00 +28°C° 0 mm 3 m/S 745 mmHg 57%
    12:00 +29°C° 0 mm 3 m/S 745 mmHg 54%
    13:00 +29°C° 0 mm 3 m/S 745 mmHg 52%
    14:00 +30°C° 0 mm 3 m/S 745 mmHg 50%
    15:00 +29°C° 0 mm 2 m/S 745 mmHg 53%
    16:00 +29°C° 0 mm 2 m/S 745 mmHg 56%
    17:00 +29°C° 0 mm 2 m/S 745 mmHg 58%
    18:00 +27°C° 0 mm 1 m/S 745 mmHg 67%
    19:00 +25°C° 0 mm 1 m/S 745 mmHg 76%
    20:00 +23°C° 0 mm 1 m/S 745 mmHg 85%
    21:00 +22°C° 0 mm 1 m/S 745 mmHg 88%
    22:00 +21°C° 0 mm 1 m/S 745 mmHg 91%
    23:00 +20°C° 0 mm 1 m/S 745 mmHg 94%

    10 Juni, Mittwoch

    Zeit Temperatur Niederschläge Wind Luftdruck Luftfeuchtigkeit
    00:00 +20°C° 0 mm 1 m/S 745 mmHg 95%
    01:00 +20°C° 0 mm 1 m/S 745 mmHg 95%
    02:00 +19°C° 0 mm 1 m/S 745 mmHg 96%
    03:00 +20°C° 0 mm 1 m/S 745 mmHg 95%
    04:00 +20°C° 0 mm 1 m/S 745 mmHg 94%
    05:00 +20°C° 0 mm 1 m/S 745 mmHg 94%
    06:00 +22°C° 0 mm 1 m/S 745 mmHg 86%
    07:00 +24°C° 0 mm 1 m/S 745 mmHg 79%
    08:00 +26°C° 0 mm 1 m/S 745 mmHg 72%
    09:00 +27°C° 0.6 mm 1 m/S 745 mmHg 67%
    10:00 +28°C° 0.6 mm 2 m/S 745 mmHg 63%
    11:00 +29°C° 0.6 mm 2 m/S 745 mmHg 59%
    12:00 +29°C° 0.1 mm 2 m/S 745 mmHg 56%
    13:00 +30°C° 0.1 mm 2 m/S 745 mmHg 54%
    14:00 +30°C° 0.1 mm 2 m/S 744 mmHg 51%
    15:00 +30°C° 0.1 mm 2 m/S 744 mmHg 56%
    16:00 +29°C° 0.1 mm 2 m/S 744 mmHg 61%
    17:00 +29°C° 0.1 mm 2 m/S 744 mmHg 66%
    18:00 +27°C° 0.2 mm 2 m/S 744 mmHg 74%
    19:00 +25°C° 0.2 mm 2 m/S 744 mmHg 81%
    20:00 +23°C° 0.2 mm 2 m/S 744 mmHg 89%
    21:00 +21°C° 0 mm 2 m/S 744 mmHg 91%
    22:00 +21°C° 0 mm 2 m/S 744 mmHg 93%
    23:00 +20°C° 0 mm 2 m/S 744 mmHg 96%

    11 Juni, Donnerstag

    Zeit Temperatur Niederschläge Wind Luftdruck Luftfeuchtigkeit
    00:00 +19°C° 0 mm 2 m/S 744 mmHg 96%
    01:00 +20°C° 0 mm 1 m/S 744 mmHg 96%
    02:00 +20°C° 0 mm 1 m/S 744 mmHg 97%
    03:00 +20°C° 0 mm 1 m/S 744 mmHg 97%
    04:00 +19°C° 0 mm 2 m/S 744 mmHg 96%
    05:00 +19°C° 0 mm 2 m/S 744 mmHg 96%
    06:00 +21°C° 0 mm 2 m/S 745 mmHg 90%
    07:00 +24°C° 0 mm 2 m/S 745 mmHg 85%
    08:00 +26°C° 0 mm 2 m/S 745 mmHg 79%
    09:00 +27°C° 0.1 mm 2 m/S 745 mmHg 72%
    10:00 +28°C° 0.1 mm 2 m/S 745 mmHg 66%
    11:00 +29°C° 0.1 mm 3 m/S 745 mmHg 59%
    12:00 +30°C° 0 mm 3 m/S 745 mmHg 57%
    13:00 +30°C° 0 mm 3 m/S 744 mmHg 55%
    14:00 +31°C° 0 mm 3 m/S 744 mmHg 53%
    15:00 +30°C° 0 mm 2 m/S 744 mmHg 55%
    16:00 +30°C° 0 mm 2 m/S 744 mmHg 58%
    17:00 +29°C° 0 mm 2 m/S 744 mmHg 60%
    18:00 +28°C° 0 mm 2 m/S 744 mmHg 68%
    19:00 +26°C° 0 mm 2 m/S 744 mmHg 75%
    20:00 +24°C° 0 mm 1 m/S 744 mmHg 82%
    21:00 +23°C° 0.1 mm 1 m/S 744 mmHg 85%
    22:00 +22°C° 0.1 mm 1 m/S 744 mmHg 87%
    23:00 +21°C° 0.1 mm 1 m/S 744 mmHg 90%

    12 Juni, Freitag

    Zeit Temperatur Niederschläge Wind Luftdruck Luftfeuchtigkeit
    00:00 +21°C° 0 mm 1 m/S 744 mmHg 91%
    01:00 +20°C° 0 mm 1 m/S 743 mmHg 92%
    02:00 +20°C° 0 mm 1 m/S 743 mmHg 92%
    03:00 +20°C° 0 mm 1 m/S 743 mmHg 92%
    04:00 +20°C° 0 mm 1 m/S 743 mmHg 92%
    05:00 +20°C° 0 mm 1 m/S 743 mmHg 91%
    06:00 +21°C° 0 mm 2 m/S 744 mmHg 86%
    07:00 +24°C° 0 mm 2 m/S 744 mmHg 80%
    08:00 +25°C° 0 mm 2 m/S 744 mmHg 75%
    09:00 +26°C° 0 mm 2 m/S 744 mmHg 69%
    10:00 +27°C° 0 mm 2 m/S 744 mmHg 63%
    11:00 +29°C° 0 mm 2 m/S 744 mmHg 57%
    12:00 +29°C° 0 mm 2 m/S 743 mmHg 55%
    13:00 +30°C° 0 mm 2 m/S 743 mmHg 53%
    14:00 +31°C° 0 mm 2 m/S 743 mmHg 51%
    15:00 +30°C° 0.1 mm 2 m/S 743 mmHg 54%
    16:00 +30°C° 0.1 mm 2 m/S 743 mmHg 58%
    17:00 +29°C° 0.1 mm 2 m/S 743 mmHg 62%
    18:00 +28°C° 0.1 mm 2 m/S 743 mmHg 69%
    19:00 +26°C° 0.1 mm 2 m/S 743 mmHg 77%
    20:00 +24°C° 0.1 mm 2 m/S 743 mmHg 84%
    21:00 +23°C° 0 mm 2 m/S 743 mmHg 87%
    22:00 +21°C° 0 mm 2 m/S 743 mmHg 89%
    23:00 +20°C° 0 mm 2 m/S 743 mmHg 92%
    Mehr zeigen